,,,PA_Meas_PMT16A,,PR_Meas_QMR101_102,,RH_Meas_QMH101,,SR_Meas_QMS101,,TA_Meas_QMH101,,GenWind,,GenWind,
date,time,status,PA,status,PR,status,RH,status,SR,status,TA,status,DirAvg,status,SpdAvg,
2012-05-16, 00:00:04,VALID,1004.8,VALID,0,VALID,93.6979,VALID,0,VALID,25.1423,VALID,337,VALID,0.471484,
2012-05-16, 00:01:04,VALID,1004.77,VALID,0,VALID,93.675,VALID,0.0815089,VALID,25.1404,VALID,3,VALID,0.698828,
2012-05-16, 00:02:04,VALID,1004.74,VALID,0,VALID,93.614,VALID,0.0815089,VALID,25.1618,VALID,354,VALID,0.796094,
2012-05-16, 00:03:04,VALID,1004.68,VALID,0,VALID,93.5758,VALID,0.0815089,VALID,25.121,VALID,360,VALID,0.610937,
2012-05-16, 00:04:04,VALID,1004.67,VALID,0,VALID,93.5682,VALID,0,VALID,25.1248,VALID,20,VALID,0.552344,
2012-05-16, 00:05:04,VALID,1004.64,VALID,0,VALID,93.5224,VALID,0,VALID,25.1034,VALID,22,VALID,0.532422,
2012-05-16, 00:06:04,VALID,1004.61,VALID,0,VALID,93.5453,VALID,0.0815089,VALID,25.0839,VALID,22,VALID,0.520312,
2012-05-16, 00:07:04,VALID,1004.6,VALID,0,VALID,93.5758,VALID,0,VALID,25.0839,VALID,22,VALID,0,
2012-05-16, 00:08:04,VALID,1004.56,VALID,0,VALID,93.614,VALID,0.0815089,VALID,25.0644,VALID,22,VALID,0.255469,
2012-05-16, 00:09:04,VALID,1004.56,VALID,0,VALID,93.6521,VALID,0,VALID,25.0469,VALID,22,VALID,0.298047,
2012-05-16, 00:10:04,VALID,1004.51,VALID,0,VALID,93.6903,VALID,0,VALID,25.0663,VALID,22,VALID,0,
2012-05-16, 00:11:04,VALID,1004.53,VALID,0,VALID,93.7361,VALID,0,VALID,25.0488,VALID,22,VALID,0,
2012-05-16, 00:12:04,VALID,1004.54,VALID,0,VALID,93.7742,VALID,0,VALID,25.0274,VALID,22,VALID,0,
2012-05-16, 00:13:04,VALID,1004.52,VALID,0,VALID,93.8047,VALID,0,VALID,25.0488,VALID,22,VALID,0,
2012-05-16, 00:14:04,VALID,1004.53,VALID,0,VALID,93.8581,VALID,0,VALID,25.0274,VALID,22,VALID,0,
2012-05-16, 00:15:04,VALID,1004.53,VALID,0,VALID,93.881,VALID,0,VALID,25.0079,VALID,22,VALID,0,
2012-05-16, 00:16:04,VALID,1004.5,VALID,0,VALID,93.8886,VALID,0,VALID,25.0079,VALID,22,VALID,0,
2012-05-16, 00:17:04,VALID,1004.47,VALID,0,VALID,93.9573,VALID,0,VALID,25.0079,VALID,22,VALID,0,
2012-05-16, 00:18:04,VALID,1004.38,VALID,0,VALID,93.9802,VALID,0,VALID,25.0079,VALID,22,VALID,0,
2012-05-16, 00:19:04,VALID,1004.38,VALID,0,VALID,94.0259,VALID,0,VALID,25.0079,VALID,22,VALID,0,
2012-05-16, 00:20:04,VALID,1004.35,VALID,0,VALID,94.0336,VALID,0,VALID,25.0098,VALID,22,VALID,0,
2012-05-16, 00:21:04,VALID,1004.3,VALID,0,VALID,93.9878,VALID,0,VALID,24.9904,VALID,22,VALID,0,
2012-05-16, 00:22:04,VALID,1004.26,VALID,0,VALID,94.0031,VALID,0,VALID,24.9709,VALID,22,VALID,0.441016,
2012-05-16, 00:23:04,VALID,1004.23,VALID,0,VALID,94.0031,VALID,0,VALID,24.93,VALID,22,VALID,0.346094,
2012-05-16, 00:24:04,VALID,1004.19,VALID,0,VALID,94.0412,VALID,0.0815089,VALID,24.9087,VALID,22,VALID,0.123438,
2012-05-16, 00:25:04,VALID,1004.15,VALID,0,VALID,94.0794,VALID,0,VALID,24.8892,VALID,22,VALID,0,
2012-05-16, 00:26:04,VALID,1004.14,VALID,0,VALID,94.0946,VALID,0.0815089,VALID,24.9106,VALID,22,VALID,0,
2012-05-16, 00:27:04,VALID,1004.13,VALID,0,VALID,94.1251,VALID,0.0815089,VALID,24.8892,VALID,22,VALID,0,
2012-05-16, 00:28:04,VALID,1004.09,VALID,0,VALID,94.1251,VALID,0.0815089,VALID,24.8289,VALID,22,VALID,0,
2012-05-16, 00:29:04,VALID,1004.05,VALID,0,VALID,94.1404,VALID,0.0815089,VALID,24.8716,VALID,22,VALID,0,
2012-05-16, 00:30:04,VALID,1004.05,VALID,0,VALID,94.1938,VALID,0.0815089,VALID,24.8503,VALID,22,VALID,0,
2012-05-16, 00:31:04,VALID,1003.96,VALID,0,VALID,94.2396,VALID,0.0815089,VALID,24.8522,VALID,22,VALID,0,
2012-05-16, 00:32:04,VALID,1003.95,VALID,0,VALID,94.2472,VALID,0.0815089,VALID,24.8308,VALID,22,VALID,0,
2012-05-16, 00:33:04,VALID,1003.87,VALID,0,VALID,94.2701,VALID,0.0815089,VALID,24.7919,VALID,22,VALID,0,
2012-05-16, 00:34:04,VALID,1003.84,VALID,0,VALID,94.2624,VALID,0,VALID,24.8132,VALID,22,VALID,0,
2012-05-16, 00:35:04,VALID,1003.85,VALID,0,VALID,94.2548,VALID,0.0815089,VALID,24.7724,VALID,22,VALID,0,
2012-05-16, 00:36:04,VALID,1003.83,VALID,0,VALID,94.2624,VALID,0.0815089,VALID,24.7529,VALID,22,VALID,0,
2012-05-16, 00:37:04,VALID,1003.79,VALID,0,VALID,94.3006,VALID,0.0815089,VALID,24.7529,VALID,22,VALID,0,
2012-05-16, 00:38:04,VALID,1003.76,VALID,0,VALID,94.3387,VALID,0.0815089,VALID,24.7335,VALID,22,VALID,0,
2012-05-16, 00:39:04,VALID,1003.76,VALID,0,VALID,94.3311,VALID,0,VALID,24.7353,VALID,22,VALID,0,
2012-05-16, 00:40:04,VALID,1003.73,VALID,0,VALID,94.3464,VALID,0,VALID,24.7159,VALID,22,VALID,0,
2012-05-16, 00:41:04,VALID,1003.71,VALID,0,VALID,94.3692,VALID,0,VALID,24.6945,VALID,22,VALID,0,
2012-05-16, 00:42:04,VALID,1003.7,VALID,0,VALID,94.3921,VALID,0,VALID,24.6964,VALID,22,VALID,0.538281,
2012-05-16, 00:43:04,VALID,1003.65,VALID,0,VALID,94.3769,VALID,0,VALID,24.675,VALID,22,VALID,0.496484,
2012-05-16, 00:44:04,VALID,1003.65,VALID,0,VALID,94.3998,VALID,0,VALID,24.6574,VALID,22,VALID,0.475,
2012-05-16, 00:45:04,VALID,1003.65,VALID,0,VALID,94.4074,VALID,0,VALID,24.6574,VALID,22,VALID,0.0121094,
2012-05-16, 00:46:04,VALID,1003.65,VALID,0,VALID,94.3845,VALID,0,VALID,24.6593,VALID,22,VALID,0,
2012-05-16, 00:47:04,VALID,1003.63,VALID,0,VALID,94.3998,VALID,0,VALID,24.6185,VALID,22,VALID,0.3875,
2012-05-16, 00:48:04,VALID,1003.64,VALID,0,VALID,94.4532,VALID,0,VALID,24.638,VALID,22,VALID,0.437109,
2012-05-16, 00:49:04,VALID,1003.64,VALID,0,VALID,94.4379,VALID,0,VALID,24.6166,VALID,22,VALID,0.382422,
2012-05-16, 00:50:04,VALID,1003.59,VALID,0,VALID,94.4913,VALID,0,VALID,24.6166,VALID,22,VALID,0,
2012-05-16, 00:51:04,VALID,1003.58,VALID,0,VALID,94.5066,VALID,0,VALID,24.6185,VALID,22,VALID,0,
2012-05-16, 00:52:04,VALID,1003.58,VALID,0,VALID,94.5295,VALID,0,VALID,24.638,VALID,22,VALID,0,
2012-05-16, 00:53:04,VALID,1003.54,VALID,0,VALID,94.5218,VALID,0,VALID,24.5972,VALID,18,VALID,0,
2012-05-16, 00:54:04,VALID,1003.51,VALID,0,VALID,94.5447,VALID,0,VALID,24.638,VALID,17,VALID,0.596484,
2012-05-16, 00:55:04,VALID,1003.51,VALID,0,VALID,94.5523,VALID,0,VALID,24.6166,VALID,12,VALID,0.544141,
2012-05-16, 00:56:04,VALID,1003.52,VALID,0,VALID,94.5371,VALID,0,VALID,24.6185,VALID,12,VALID,0.351953,
2012-05-16, 00:57:04,VALID,1003.5,VALID,0,VALID,94.5981,VALID,0,VALID,24.638,VALID,12,VALID,0.216406,
2012-05-16, 00:58:04,VALID,1003.5,VALID,0,VALID,94.5752,VALID,0,VALID,24.6166,VALID,12,VALID,0,
2012-05-16, 00:59:04,VALID,1003.46,VALID,0,VALID,94.5676,VALID,0,VALID,24.638,VALID,11,VALID,0.00546875,
2012-05-16, 01:00:04,VALID,1003.44,VALID,0,VALID,94.6363,VALID,0,VALID,24.6574,VALID,348,VALID,0.612891,
2012-05-16, 01:01:04,VALID,1003.43,VALID,0,VALID,94.7354,VALID,0,VALID,24.7353,VALID,343,VALID,0.911328,
2012-05-16, 01:02:04,VALID,1003.39,VALID,0,VALID,94.7354,VALID,0,VALID,24.7724,VALID,342,VALID,0.652734,
2012-05-16, 01:03:04,VALID,1003.39,VALID,0,VALID,94.7125,VALID,0,VALID,24.7919,VALID,350,VALID,0.560547,
2012-05-16, 01:04:05,VALID,1003.34,VALID,0,VALID,94.682,VALID,0,VALID,24.8522,VALID,350,VALID,0.379687,
2012-05-16, 01:05:05,VALID,1003.32,VALID,0,VALID,94.6744,VALID,0,VALID,24.8716,VALID,350,VALID,0.257422,
2012-05-16, 01:06:05,VALID,1003.3,VALID,0,VALID,94.5523,VALID,0,VALID,24.8522,VALID,350,VALID,0.314844,
2012-05-16, 01:07:05,VALID,1003.27,VALID,0,VALID,94.5218,VALID,0,VALID,24.8308,VALID,339,VALID,0.491797,
2012-05-16, 01:08:05,VALID,1003.29,VALID,0,VALID,94.4989,VALID,0,VALID,24.8503,VALID,341,VALID,0.464844,
2012-05-16, 01:09:05,VALID,1003.27,VALID,0,VALID,94.4761,VALID,0,VALID,24.8911,VALID,343,VALID,0.630469,
2012-05-16, 01:10:05,VALID,1003.26,VALID,0,VALID,94.4455,VALID,0,VALID,24.8697,VALID,338,VALID,0.780859,
2012-05-16, 01:11:05,VALID,1003.24,VALID,0,VALID,94.3845,VALID,0,VALID,24.9087,VALID,353,VALID,0.606641,
2012-05-16, 01:12:05,VALID,1003.21,VALID,0,VALID,94.2853,VALID,0,VALID,24.9514,VALID,353,VALID,0.592969,
2012-05-16, 01:13:05,VALID,1003.22,VALID,0,VALID,94.1709,VALID,0,VALID,24.9282,VALID,351,VALID,0.524609,
2012-05-16, 01:14:05,VALID,1003.19,VALID,0,VALID,94.1328,VALID,0,VALID,24.9476,VALID,357,VALID,0.532422,
2012-05-16, 01:15:05,VALID,1003.17,VALID,0,VALID,94.0565,VALID,0,VALID,24.9476,VALID,352,VALID,0.723828,
2012-05-16, 01:16:05,VALID,1003.19,VALID,0,VALID,93.9878,VALID,0,VALID,24.9885,VALID,347,VALID,0.596875,
2012-05-16, 01:17:05,VALID,1003.15,VALID,0,VALID,93.8581,VALID,0,VALID,24.9885,VALID,350,VALID,0.834375,
2012-05-16, 01:18:05,VALID,1003.16,VALID,0,VALID,93.6292,VALID,0,VALID,25.0274,VALID,353,VALID,0.852344,
2012-05-16, 01:19:05,VALID,1003.18,VALID,0,VALID,93.3928,VALID,0,VALID,25.045,VALID,347,VALID,0.869531,
2012-05-16, 01:20:05,VALID,1003.16,VALID,0,VALID,93.1257,VALID,0,VALID,25.045,VALID,353,VALID,0.864453,
2012-05-16, 01:21:05,VALID,1003.23,VALID,0,VALID,92.9884,VALID,0,VALID,25.0858,VALID,324,VALID,0.554688,
2012-05-16, 01:22:05,VALID,1003.19,VALID,0,VALID,92.8664,VALID,0,VALID,25.0644,VALID,346,VALID,0.688672,
2012-05-16, 01:23:05,VALID,1003.2,VALID,0,VALID,92.7443,VALID,0,VALID,25.0839,VALID,346,VALID,0.626953,
2012-05-16, 01:24:05,VALID,1003.21,VALID,0,VALID,92.6146,VALID,0,VALID,25.0858,VALID,346,VALID,0.950781,
2012-05-16, 01:25:05,VALID,1003.21,VALID,0,VALID,92.4315,VALID,0,VALID,25.1248,VALID,348,VALID,1.05508,
2012-05-16, 01:26:05,VALID,1003.23,VALID,0,VALID,92.3247,VALID,0,VALID,25.1442,VALID,356,VALID,0.472266,
2012-05-16, 01:27:05,VALID,1003.19,VALID,0,VALID,92.2484,VALID,0,VALID,25.1637,VALID,354,VALID,0.675,
2012-05-16, 01:28:05,VALID,1003.24,VALID,0,VALID,92.1721,VALID,0,VALID,25.1618,VALID,348,VALID,0.649609,
2012-05-16, 01:29:05,VALID,1003.21,VALID,0,VALID,92.0501,VALID,0,VALID,25.1832,VALID,352,VALID,0.608203,
2012-05-16, 01:30:05,VALID,1003.19,VALID,0,VALID,91.9204,VALID,0,VALID,25.1813,VALID,345,VALID,1.18359,
2012-05-16, 01:31:05,VALID,1003.19,VALID,0,VALID,91.7373,VALID,0,VALID,25.2221,VALID,340,VALID,0.774609,
2012-05-16, 01:32:05,VALID,1003.18,VALID,0,VALID,91.6381,VALID,0,VALID,25.2202,VALID,351,VALID,0.534766,
2012-05-16, 01:33:05,VALID,1003.14,VALID,0,VALID,91.5847,VALID,0,VALID,25.2611,VALID,351,VALID,0.686328,
2012-05-16, 01:34:05,VALID,1003.15,VALID,0,VALID,91.5389,VALID,0,VALID,25.2202,VALID,350,VALID,0.566016,
2012-05-16, 01:35:05,VALID,1003.15,VALID,0,VALID,91.5313,VALID,0,VALID,25.2202,VALID,349,VALID,0.351172,
2012-05-16, 01:36:05,VALID,1003.13,VALID,0,VALID,91.5237,VALID,0,VALID,25.2416,VALID,341,VALID,0.684375,
2012-05-16, 01:37:05,VALID,1003.14,VALID,0,VALID,91.4703,VALID,0,VALID,25.2221,VALID,345,VALID,0.866406,
2012-05-16, 01:38:05,VALID,1003.17,VALID,0,VALID,91.4474,VALID,0,VALID,25.2221,VALID,345,VALID,0.437891,
2012-05-16, 01:39:05,VALID,1003.16,VALID,0,VALID,91.394,VALID,0,VALID,25.2202,VALID,345,VALID,0.65,
2012-05-16, 01:40:05,VALID,1003.14,VALID,0,VALID,91.3558,VALID,0,VALID,25.1813,VALID,346,VALID,0.692187,
2012-05-16, 01:41:05,VALID,1003.16,VALID,0,VALID,91.4779,VALID,0,VALID,25.1832,VALID,346,VALID,0.393359,
2012-05-16, 01:42:05,VALID,1003.16,VALID,0,VALID,91.249,VALID,0,VALID,25.1832,VALID,353,VALID,0.973437,
2012-05-16, 01:43:05,VALID,1003.14,VALID,0,VALID,91.0812,VALID,0,VALID,25.1618,VALID,352,VALID,1.01484,
2012-05-16, 01:44:05,VALID,1003.16,VALID,0,VALID,90.9134,VALID,0,VALID,25.1618,VALID,344,VALID,0.569922,
2012-05-16, 01:45:05,VALID,1003.14,VALID,0,VALID,90.8752,VALID,0,VALID,25.2221,VALID,346,VALID,0.650391,
2012-05-16, 01:46:05,VALID,1003.17,VALID,0,VALID,90.3565,VALID,0,VALID,25.2202,VALID,350,VALID,1.08672,
2012-05-16, 01:47:05,VALID,1003.17,VALID,0,VALID,90.0742,VALID,0,VALID,25.3,VALID,328,VALID,0.608594,
2012-05-16, 01:48:05,VALID,1003.16,VALID,0,VALID,89.9216,VALID,0,VALID,25.337,VALID,355,VALID,0.425781,
2012-05-16, 01:49:05,VALID,1003.18,VALID,0,VALID,89.7156,VALID,0,VALID,25.3584,VALID,347,VALID,0.719531,
2012-05-16, 01:50:05,VALID,1003.18,VALID,0,VALID,89.6241,VALID,0,VALID,25.3974,VALID,344,VALID,0.867578,
2012-05-16, 01:51:05,VALID,1003.18,VALID,0,VALID,89.5097,VALID,0,VALID,25.3974,VALID,342,VALID,0.642969,
2012-05-16, 01:52:05,VALID,1003.18,VALID,0,VALID,89.2884,VALID,0,VALID,25.4169,VALID,349,VALID,1.02891,
2012-05-16, 01:53:05,VALID,1003.16,VALID,0,VALID,89.2732,VALID,0,VALID,25.4363,VALID,340,VALID,0.978906,
2012-05-16, 01:54:05,VALID,1003.13,VALID,0,VALID,89.0901,VALID,0,VALID,25.4539,VALID,349,VALID,0.405078,
2012-05-16, 01:55:05,VALID,1003.15,VALID,0,VALID,88.9527,VALID,0,VALID,25.4734,VALID,348,VALID,0.646484,
2012-05-16, 01:56:05,VALID,1003.1,VALID,0,VALID,89.1282,VALID,0,VALID,25.4948,VALID,348,VALID,0.410937,
2012-05-16, 01:57:05,VALID,1003.09,VALID,0,VALID,89.2655,VALID,0,VALID,25.4558,VALID,348,VALID,0.351563,
2012-05-16, 01:58:05,VALID,1003.12,VALID,0,VALID,89.38,VALID,0,VALID,25.4149,VALID,348,VALID,0.378516,
2012-05-16, 01:59:05,VALID,1003.1,VALID,0,VALID,89.5249,VALID,0,VALID,25.4363,VALID,348,VALID,0.0417969,
2012-05-16, 02:00:05,VALID,1003.09,VALID,0,VALID,89.2503,VALID,0,VALID,25.4363,VALID,334,VALID,1.27969,
2012-05-16, 02:01:05,VALID,1003.08,VALID,0,VALID,88.9909,VALID,0,VALID,25.4558,VALID,346,VALID,1.21523,
2012-05-16, 02:02:05,VALID,1003.07,VALID,0,VALID,88.8688,VALID,0,VALID,25.4948,VALID,338,VALID,0.883984,
2012-05-16, 02:03:05,VALID,1003.06,VALID,0,VALID,88.8536,VALID,0,VALID,25.4928,VALID,347,VALID,0.638672,
2012-05-16, 02:04:05,VALID,1003.07,VALID,0,VALID,88.8612,VALID,0,VALID,25.4928,VALID,9,VALID,0.925781,
2012-05-16, 02:05:05,VALID,1003.05,VALID,0,VALID,88.5637,VALID,0,VALID,25.4948,VALID,345,VALID,1.04922,
2012-05-16, 02:06:05,VALID,1003.06,VALID,0,VALID,88.5179,VALID,0,VALID,25.4948,VALID,354,VALID,0.899609,
2012-05-16, 02:07:05,VALID,1003.07,VALID,0,VALID,88.6247,VALID,0,VALID,25.4948,VALID,356,VALID,0.68125,
2012-05-16, 02:08:05,VALID,1003.04,VALID,0,VALID,88.7773,VALID,0,VALID,25.4734,VALID,351,VALID,0.189844,
2012-05-16, 02:09:05,VALID,1003.05,VALID,0,VALID,88.8307,VALID,0,VALID,25.4753,VALID,344,VALID,0.567578,
2012-05-16, 02:10:05,VALID,1003.06,VALID,0,VALID,88.8459,VALID,0,VALID,25.4558,VALID,350,VALID,0.799219,
2012-05-16, 02:11:05,VALID,1003.04,VALID,0,VALID,88.8841,VALID,0,VALID,25.4363,VALID,343,VALID,0.367578,
2012-05-16, 02:12:05,VALID,1003.03,VALID,0,VALID,88.8841,VALID,0,VALID,25.4169,VALID,352,VALID,0.561719,
2012-05-16, 02:13:05,VALID,1003.03,VALID,0,VALID,88.9909,VALID,0,VALID,25.4169,VALID,350,VALID,0.562109,
2012-05-16, 02:14:05,VALID,1003.03,VALID,0,VALID,89.2655,VALID,0,VALID,25.4383,VALID,350,VALID,0.471484,
2012-05-16, 02:15:05,VALID,1003.02,VALID,0,VALID,89.3266,VALID,0,VALID,25.3974,VALID,359,VALID,0.972266,
2012-05-16, 02:16:05,VALID,1003.03,VALID,0,VALID,89.3952,VALID,0,VALID,25.3779,VALID,353,VALID,0.726953,
2012-05-16, 02:17:05,VALID,1003.05,VALID,0,VALID,89.38,VALID,0,VALID,25.339,VALID,352,VALID,1.38008,
2012-05-16, 02:18:05,VALID,1003.01,VALID,0,VALID,89.5859,VALID,0,VALID,25.3584,VALID,351,VALID,0.873828,
2012-05-16, 02:19:05,VALID,1003.02,VALID,0,VALID,89.6241,VALID,0,VALID,25.339,VALID,349,VALID,0.9875,
2012-05-16, 02:20:05,VALID,1003.01,VALID,0,VALID,89.7156,VALID,0,VALID,25.3195,VALID,341,VALID,0.950391,
2012-05-16, 02:21:05,VALID,1003.02,VALID,0,VALID,89.7233,VALID,0,VALID,25.2806,VALID,350,VALID,0.858984,
2012-05-16, 02:22:05,VALID,1003,VALID,0,VALID,89.9064,VALID,0,VALID,25.3,VALID,14,VALID,0.584766,
2012-05-16, 02:23:05,VALID,1003.03,VALID,0,VALID,89.9979,VALID,0,VALID,25.2806,VALID,349,VALID,1.12656,
2012-05-16, 02:24:05,VALID,1003.02,VALID,0,VALID,89.8911,VALID,0,VALID,25.2981,VALID,352,VALID,1.02734,
2012-05-16, 02:25:05,VALID,1002.97,VALID,0,VALID,89.7767,VALID,0,VALID,25.339,VALID,344,VALID,0.714844,
2012-05-16, 02:26:05,VALID,1002.98,VALID,0,VALID,89.5707,VALID,0.0815089,VALID,25.3351,VALID,353,VALID,1.00781,
2012-05-16, 02:27:05,VALID,1003,VALID,0,VALID,89.3647,VALID,0,VALID,25.3546,VALID,349,VALID,0.863281,
2012-05-16, 02:28:05,VALID,1002.96,VALID,0,VALID,89.1206,VALID,0,VALID,25.3955,VALID,351,VALID,0.912109,
2012-05-16, 02:29:05,VALID,1002.94,VALID,0,VALID,89.2884,VALID,0.0815089,VALID,25.4344,VALID,353,VALID,0.634375,
2012-05-16, 02:30:05,VALID,1002.92,VALID,0,VALID,89.029,VALID,0.0815089,VALID,25.4344,VALID,352,VALID,0.668359,
2012-05-16, 02:31:05,VALID,1002.87,VALID,0,VALID,88.64,VALID,0,VALID,25.4753,VALID,16,VALID,1.10781,
2012-05-16, 02:32:05,VALID,1002.87,VALID,0,VALID,88.8993,VALID,0.0815089,VALID,25.4714,VALID,15,VALID,0.627344,
2012-05-16, 02:33:05,VALID,1002.9,VALID,0,VALID,88.5408,VALID,0.0815089,VALID,25.4734,VALID,357,VALID,0.642187,
2012-05-16, 02:34:05,VALID,1002.87,VALID,0,VALID,88.762,VALID,0.0815089,VALID,25.4734,VALID,358,VALID,0.221484,
2012-05-16, 02:35:05,VALID,1002.91,VALID,0,VALID,88.3882,VALID,0.0815089,VALID,25.4714,VALID,342,VALID,0.830469,
2012-05-16, 02:36:05,VALID,1002.91,VALID,0,VALID,88.5942,VALID,0.0815089,VALID,25.4928,VALID,4,VALID,0.566406,
2012-05-16, 02:37:05,VALID,1002.92,VALID,0,VALID,88.2661,VALID,0.0815089,VALID,25.4928,VALID,22,VALID,0.285937,
2012-05-16, 02:38:05,VALID,1002.93,VALID,0,VALID,88.4798,VALID,0,VALID,25.5123,VALID,22,VALID,0.303516,
2012-05-16, 02:39:05,VALID,1002.91,VALID,0,VALID,88.4264,VALID,0,VALID,25.5142,VALID,17,VALID,0.4625,
2012-05-16, 02:40:05,VALID,1002.92,VALID,0,VALID,88.3272,VALID,0,VALID,25.5142,VALID,347,VALID,0.587109,
2012-05-16, 02:41:05,VALID,1002.91,VALID,0,VALID,88.5484,VALID,0,VALID,25.5337,VALID,341,VALID,0.470703,
2012-05-16, 02:42:05,VALID,1002.9,VALID,0,VALID,88.2356,VALID,0,VALID,25.4734,VALID,349,VALID,0.721484,
2012-05-16, 02:43:05,VALID,1002.9,VALID,0,VALID,88.0907,VALID,0,VALID,25.5142,VALID,351,VALID,0.615625,
2012-05-16, 02:44:05,VALID,1002.88,VALID,0,VALID,88.0373,VALID,0,VALID,25.5123,VALID,342,VALID,0.50625,
2012-05-16, 02:45:05,VALID,1002.89,VALID,0,VALID,87.7703,VALID,0,VALID,25.5532,VALID,1,VALID,0.595703,
2012-05-16, 02:46:05,VALID,1002.9,VALID,0,VALID,87.4499,VALID,0,VALID,25.5727,VALID,358,VALID,0.824609,
2012-05-16, 02:47:05,VALID,1002.89,VALID,0,VALID,87.3278,VALID,0,VALID,25.6116,VALID,349,VALID,0.722656,
2012-05-16, 02:48:05,VALID,1002.89,VALID,0,VALID,87.015,VALID,0,VALID,25.6097,VALID,351,VALID,0.933203,
2012-05-16, 02:49:05,VALID,1002.88,VALID,0,VALID,87.0532,VALID,0,VALID,25.6486,VALID,344,VALID,0.404687,
2012-05-16, 02:50:05,VALID,1002.9,VALID,0,VALID,87.1218,VALID,0,VALID,25.6895,VALID,342,VALID,0.414844,
2012-05-16, 02:51:05,VALID,1002.91,VALID,0,VALID,87.4499,VALID,0,VALID,25.67,VALID,333,VALID,0.469531,
2012-05-16, 02:52:05,VALID,1002.92,VALID,0,VALID,87.2057,VALID,0,VALID,25.6311,VALID,354,VALID,0.516406,
2012-05-16, 02:53:05,VALID,1002.92,VALID,0,VALID,87.2134,VALID,0,VALID,25.6311,VALID,353,VALID,0.5125,
2012-05-16, 02:54:05,VALID,1002.92,VALID,0,VALID,87.2286,VALID,0,VALID,25.6097,VALID,335,VALID,0.748047,
2012-05-16, 02:55:05,VALID,1002.94,VALID,0,VALID,87.343,VALID,0,VALID,25.6311,VALID,344,VALID,0.394531,
2012-05-16, 02:56:05,VALID,1002.91,VALID,0,VALID,87.4499,VALID,0,VALID,25.6116,VALID,344,VALID,0.542969,
2012-05-16, 02:57:05,VALID,1002.92,VALID,0,VALID,87.4499,VALID,0,VALID,25.5921,VALID,348,VALID,0.684766,
2012-05-16, 02:58:05,VALID,1002.9,VALID,0,VALID,87.4956,VALID,0,VALID,25.5921,VALID,347,VALID,0.419141,
2012-05-16, 02:59:05,VALID,1002.89,VALID,0,VALID,87.5567,VALID,0,VALID,25.5727,VALID,348,VALID,0.621875,
2012-05-16, 03:00:05,VALID,1002.9,VALID,0,VALID,87.6253,VALID,0,VALID,25.5921,VALID,344,VALID,0.484375,
2012-05-16, 03:01:05,VALID,1002.9,VALID,0,VALID,87.6406,VALID,0,VALID,25.5727,VALID,344,VALID,0.378516,
2012-05-16, 03:02:05,VALID,1002.88,VALID,0,VALID,87.6406,VALID,0,VALID,25.5941,VALID,343,VALID,0.405469,
2012-05-16, 03:03:05,VALID,1002.93,VALID,0,VALID,87.9228,VALID,0,VALID,25.5727,VALID,343,VALID,0.301172,
2012-05-16, 03:04:05,VALID,1002.91,VALID,0,VALID,87.8466,VALID,0,VALID,25.5337,VALID,349,VALID,0.454297,
2012-05-16, 03:05:05,VALID,1002.93,VALID,0,VALID,87.8542,VALID,0,VALID,25.5337,VALID,349,VALID,0.335938,
2012-05-16, 03:06:05,VALID,1002.93,VALID,0,VALID,88.2051,VALID,0,VALID,25.5142,VALID,348,VALID,0.485156,
2012-05-16, 03:07:05,VALID,1002.93,VALID,0,VALID,88.0602,VALID,0,VALID,25.4753,VALID,348,VALID,0.505078,
2012-05-16, 03:08:05,VALID,1002.92,VALID,0,VALID,88.3958,VALID,0,VALID,25.4753,VALID,348,VALID,0.666406,
2012-05-16, 03:09:05,VALID,1002.96,VALID,0,VALID,88.6628,VALID,0,VALID,25.4558,VALID,348,VALID,0.377734,
2012-05-16, 03:10:05,VALID,1002.96,VALID,0,VALID,88.9909,VALID,0,VALID,25.4169,VALID,348,VALID,0,
2012-05-16, 03:11:05,VALID,1002.97,VALID,0,VALID,89.0748,VALID,0,VALID,25.3974,VALID,350,VALID,0.101172,
2012-05-16, 03:12:05,VALID,1002.96,VALID,0,VALID,89.3723,VALID,0,VALID,25.3176,VALID,351,VALID,0.240625,
2012-05-16, 03:13:05,VALID,1002.95,VALID,0,VALID,89.7156,VALID,0,VALID,25.3195,VALID,351,VALID,0.126563,
2012-05-16, 03:14:05,VALID,1002.96,VALID,0,VALID,89.4563,VALID,0,VALID,25.2611,VALID,351,VALID,0.536328,
2012-05-16, 03:15:05,VALID,1002.98,VALID,0,VALID,89.0214,VALID,0,VALID,25.2611,VALID,350,VALID,0.639063,
2012-05-16, 03:16:05,VALID,1002.94,VALID,0,VALID,88.968,VALID,0,VALID,25.3,VALID,346,VALID,0.635156,
2012-05-16, 03:17:05,VALID,1002.96,VALID,0,VALID,88.5179,VALID,0,VALID,25.337,VALID,347,VALID,0.515625,
2012-05-16, 03:18:05,VALID,1002.93,VALID,0,VALID,88.289,VALID,0,VALID,25.3779,VALID,347,VALID,0.475391,
2012-05-16, 03:19:05,VALID,1002.93,VALID,0,VALID,88.2433,VALID,0,VALID,25.4363,VALID,347,VALID,0.393359,
2012-05-16, 03:20:05,VALID,1002.88,VALID,0,VALID,88.2204,VALID,0,VALID,25.4539,VALID,347,VALID,0.577344,
2012-05-16, 03:21:05,VALID,1002.91,VALID,0,VALID,88.6934,VALID,0,VALID,25.4948,VALID,347,VALID,0.472266,
2012-05-16, 03:22:05,VALID,1002.86,VALID,0,VALID,88.7239,VALID,0,VALID,25.4558,VALID,347,VALID,0.529297,
2012-05-16, 03:23:05,VALID,1002.88,VALID,0,VALID,88.6934,VALID,0,VALID,25.4149,VALID,347,VALID,0.582812,
2012-05-16, 03:24:05,VALID,1002.86,VALID,0,VALID,88.8765,VALID,0,VALID,25.4169,VALID,348,VALID,0.5625,
2012-05-16, 03:25:05,VALID,1002.85,VALID,0,VALID,89.1664,VALID,0,VALID,25.337,VALID,348,VALID,0.533594,
2012-05-16, 03:26:05,VALID,1002.85,VALID,0,VALID,89.0443,VALID,0,VALID,25.339,VALID,348,VALID,0.600391,
2012-05-16, 03:27:05,VALID,1002.81,VALID,0,VALID,89.235,VALID,0,VALID,25.3195,VALID,348,VALID,0.467578,
2012-05-16, 03:28:05,VALID,1002.79,VALID,0,VALID,89.4334,VALID,0,VALID,25.3,VALID,348,VALID,0.572266,
2012-05-16, 03:29:05,VALID,1002.77,VALID,0,VALID,89.4639,VALID,0,VALID,25.2611,VALID,343,VALID,0.762891,
2012-05-16, 03:30:05,VALID,1002.75,VALID,0,VALID,89.38,VALID,0,VALID,25.2416,VALID,345,VALID,0.754687,
2012-05-16, 03:31:05,VALID,1002.73,VALID,0,VALID,89.1435,VALID,0,VALID,25.2611,VALID,330,VALID,0.721484,
2012-05-16, 03:32:05,VALID,1002.71,VALID,0,VALID,89.1892,VALID,0,VALID,25.2981,VALID,305,VALID,0.357422,
2012-05-16, 03:33:05,VALID,1002.69,VALID,0,VALID,88.9909,VALID,0,VALID,25.3195,VALID,344,VALID,0.686328,
2012-05-16, 03:34:05,VALID,1002.71,VALID,0,VALID,88.7468,VALID,0,VALID,25.337,VALID,354,VALID,0.891406,
2012-05-16, 03:35:05,VALID,1002.69,VALID,0,VALID,88.434,VALID,0,VALID,25.3974,VALID,348,VALID,0.416016,
2012-05-16, 03:36:05,VALID,1002.7,VALID,0,VALID,88.5713,VALID,0,VALID,25.4169,VALID,329,VALID,0.573047,
2012-05-16, 03:37:05,VALID,1002.66,VALID,0,VALID,88.2127,VALID,0,VALID,25.4169,VALID,347,VALID,0.474609,
2012-05-16, 03:38:05,VALID,1002.67,VALID,0,VALID,88.3195,VALID,0,VALID,25.4363,VALID,347,VALID,0.109766,
2012-05-16, 03:39:05,VALID,1002.65,VALID,0,VALID,88.1975,VALID,0,VALID,25.4149,VALID,330,VALID,0.328125,
2012-05-16, 03:40:05,VALID,1002.66,VALID,0,VALID,88.3653,VALID,0,VALID,25.4149,VALID,330,VALID,0.321094,
2012-05-16, 03:41:05,VALID,1002.69,VALID,0,VALID,87.961,VALID,0,VALID,25.4363,VALID,331,VALID,0.498047,
2012-05-16, 03:42:05,VALID,1002.7,VALID,0,VALID,87.8542,VALID,0,VALID,25.4344,VALID,331,VALID,0.355859,
2012-05-16, 03:43:04,VALID,1002.68,VALID,0,VALID,87.7016,VALID,0,VALID,25.4753,VALID,333,VALID,0.495313,
2012-05-16, 03:44:04,VALID,1002.7,VALID,0,VALID,87.4117,VALID,0,VALID,25.4948,VALID,341,VALID,0.645703,
2012-05-16, 03:45:04,VALID,1002.71,VALID,0,VALID,87.4346,VALID,0,VALID,25.4928,VALID,341,VALID,0.492578,